CW1792 Weather Reports


time (UTC)temp
F
wind
direction
speed
knots
gust
knots
rain 1hr
in
rain 24hr
in
rain mn
in
humidity
%
barometer
mb
20260507023329 69 2 1.7 4.3 0.00 0.00 0.00 64 1017.1
20260507022828 69 8 2.6 6.1 0.00 0.00 0.00 63 1017.1
20260507022329 69 28 1.7 4.3 0.00 0.00 0.00 63 1017.1
20260507021828 69 10 1.7 4.3 0.00 0.00 0.00 62 1017.1
20260507021328 70 329 1.7 6.1 0.00 0.00 0.00 62 1017.0
20260507020328 70 351 1.7 6.1 0.00 0.00 0.00 60 1016.9
20260507015828 70 38 2.6 7.0 0.00 0.00 0.00 59 1017.0
20260507015329 71 14 3.5 6.1 0.00 0.00 0.00 58 1017.0
20260507014828 71 11 2.6 8.7 0.00 0.00 0.00 57 1016.9
20260507014328 71 32 2.6 7.0 0.00 0.00 0.00 57 1016.9
20260507013328 72 27 2.6 6.1 0.00 0.00 0.00 56 1016.8
20260507012829 72 6 4.3 7.0 0.00 0.00 0.00 56 1016.7
20260507012328 72 25 2.6 8.7 0.00 0.00 0.00 56 1016.7
20260507011328 72 31 1.7 7.0 0.00 0.00 0.00 55 1016.6
20260507010828 73 42 4.3 10.4 0.00 0.00 0.00 55 1016.6
20260507010328 73 343 1.7 6.1 0.00 0.00 0.00 55 1016.6
20260507005828 73 44 2.6 6.1 0.00 0.00 0.00 54 1016.6
20260507005328 73 357 2.6 7.0 0.00 0.00 0.00 54 1016.6
20260507004829 73 48 3.5 11.3 0.00 0.00 0.00 54 1016.6
20260507004328 74 27 3.5 7.0 0.00 0.00 0.00 53 1016.6
20260507003829 74 343 2.6 7.0 0.00 0.00 0.00 53 1016.6
20260507003329 74 22 2.6 6.1 0.00 0.00 0.00 53 1016.5
20260507002828 74 28 2.6 10.4 0.00 0.00 0.00 53 1016.5
20260507002328 74 339 2.6 8.7 0.00 0.00 0.00 53 1016.5
20260507001829 74 348 3.5 7.0 0.00 0.00 0.00 53 1016.5
20260507001329 74 335 2.6 10.4 0.00 0.00 0.00 53 1016.5
20260507000828 74 357 2.6 7.0 0.00 0.00 0.00 52 1016.5
20260507000328 74 11 2.6 6.1 0.00 0.00 0.00 53 1016.5
20260506235828 74 338 4.3 7.8 0.00 0.00 0.00 52 1016.5
20260506235329 74 345 4.3 7.8 0.00 0.00 0.00 52 1016.5
20260506234828 74 12 2.6 10.4 0.00 0.00 0.00 52 1016.5
20260506234328 74 352 2.6 8.7 0.00 0.00 0.00 52 1016.5
20260506233828 75 2 2.6 7.0 0.00 0.00 0.00 52 1016.5
20260506232328 75 10 3.5 8.7 0.00 0.00 0.00 51 1016.5
20260506231828 75 336 4.3 7.0 0.00 0.00 0.00 52 1016.6
20260506231328 75 13 3.5 7.8 0.00 0.00 0.00 52 1016.6
20260506230828 75 6 2.6 12.2 0.00 0.00 0.00 52 1016.7
20260506230328 75 37 3.5 12.2 0.00 0.00 0.00 52 1016.7
20260506225828 75 54 4.3 10.4 0.00 0.00 0.00 52 1016.8
20260506225329 75 348 4.3 10.4 0.00 0.00 0.00 51 1016.9
20260506224828 75 337 2.6 6.1 0.00 0.00 0.00 51 1016.7
20260506224328 75 17 1.7 8.7 0.00 0.00 0.00 51 1016.8
20260506223828 75 332 2.6 7.8 0.00 0.00 0.00 51 1016.9
20260506223328 75 333 0.9 6.1 0.00 0.00 0.00 52 1017.0
20260506222829 75 274 1.7 7.0 0.00 0.00 0.00 49 1017.0
20260506222328 74 336 2.6 7.0 0.00 0.00 0.00 51 1017.1
20260506221828 74 306 2.6 6.1 0.00 0.00 0.00 51 1017.1
20260506220828 74 17 2.6 6.1 0.00 0.00 0.00 51 1017.2
20260506220328 74 349 2.6 6.1 0.00 0.00 0.00 51 1017.3
20260506215828 74 261 1.7 2.6 0.00 0.00 0.00 53 1017.3
20260506215328 73 45 2.6 6.1 0.00 0.00 0.00 52 1017.5
20260506214828 73 65 3.5 7.0 0.00 0.00 0.00 52 1017.6
20260506214328 73 38 0.9 7.0 0.00 0.00 0.00 52 1017.6
20260506213828 73 312 4.3 10.4 0.00 0.00 0.00 51 1017.7
20260506212328 73 4 1.7 7.8 0.00 0.00 0.00 53 1017.9
20260506211828 73 337 3.5 8.7 0.00 0.00 0.00 54 1018.0
20260506211328 72 331 2.6 5.2 0.00 0.00 0.00 53 1018.1
20260506205828 72 44 2.6 6.1 0.00 0.00 0.00 54 1018.1
20260506205328 71 355 2.6 6.1 0.00 0.00 0.00 54 1018.2
20260506204828 71 359 4.3 8.7 0.00 0.00 0.00 55 1018.2
20260506203828 71 348 2.6 7.8 0.00 0.00 0.00 56 1018.2
20260506203328 71 43 4.3 7.0 0.00 0.00 0.00 56 1018.3
20260506201828 70 355 4.3 10.4 0.00 0.00 0.00 56 1018.6
20260506200828 70 25 2.6 6.1 0.00 0.00 0.00 57 1018.7
20260506200328 70 0 1.7 10.4 0.00 0.00 0.00 57 1018.7
20260506195828 69 336 1.7 6.1 0.00 0.00 0.00 58 1018.7
20260506195328 69 294 2.6 6.1 0.00 0.00 0.00 58 1018.8
20260506194828 69 334 1.7 5.2 0.00 0.00 0.00 58 1018.8
20260506194328 69 328 3.5 8.7 0.00 0.00 0.00 58 1018.8
20260506193829 69 297 3.5 6.1 0.00 0.00 0.00 59 1018.8
20260506191828 67 36 1.7 8.7 0.00 0.00 0.00 61 1019.1
20260506191328 67 324 1.7 4.3 0.00 0.00 0.00 62 1019.2
20260506190828 67 248 0.9 5.2 0.00 0.00 0.00 62 1019.2
20260506190328 67 291 2.6 5.2 0.00 0.00 0.00 62 1019.2
20260506185828 66 344 1.7 6.1 0.00 0.00 0.00 63 1019.2
20260506185328 66 32 2.6 5.2 0.00 0.00 0.00 64 1019.3
20260506184829 66 20 1.7 6.1 0.00 0.00 0.00 64 1019.3
20260506183828 65 17 2.6 5.2 0.00 0.00 0.00 65 1019.3
20260506183328 65 41 4.3 5.2 0.00 0.00 0.00 67 1019.4
20260506182828 65 32 1.7 4.3 0.00 0.00 0.00 68 1019.4
20260506182328 64 195 1.7 2.6 0.00 0.00 0.00 68 1019.5
20260506181828 64 11 3.5 5.2 0.00 0.00 0.00 67 1019.6
20260506181328 64 314 4.3 6.1 0.00 0.00 0.00 67 1019.5
20260506180328 63 5 0.9 2.6 0.00 0.00 0.00 69 1019.6
20260506175827 63 58 1.7 4.3 0.00 0.00 0.00 69 1019.6
20260506174828 63 320 1.7 5.2 0.00 0.00 0.00 70 1019.6
20260506174328 62 275 1.7 5.2 0.00 0.00 0.00 70 1019.6
20260506173828 62 86 0.9 4.3 0.00 0.00 0.00 71 1019.6
20260506172328 61 344 0.9 4.3 0.00 0.00 0.00 72 1019.7
20260506170828 61 238 1.7 5.2 0.00 0.00 0.00 76 1019.8
20260506165828 60 331 1.7 4.3 0.00 0.00 0.00 77 1019.8
20260506165328 60 267 0.9 2.6 0.00 0.00 0.00 77 1019.8
20260506164828 60 30 0.9 4.3 0.00 0.00 0.00 77 1019.9
20260506163328 59 322 1.7 5.2 0.00 0.00 0.00 78 1019.9
20260506162828 59 0 1.7 6.1 0.00 0.00 0.00 78 1019.9
20260506161828 59 345 1.7 5.2 0.00 0.00 0.00 78 1019.9
20260506160828 59 344 0.9 4.3 0.00 0.00 0.00 79 1019.9
20260506160328 59 6 1.7 4.3 0.00 0.00 0.00 80 1019.8
20260506155828 58 292 0.0 2.6 0.00 0.00 0.00 81 1019.9
20260506154828 58 349 1.7 2.6 0.00 0.00 0.00 80 1019.9
20260506154328 58 321 2.6 4.3 0.00 0.00 0.00 80 1019.9
20260506153328 58 313 1.7 2.6 0.00 0.00 0.00 81 1019.9
20260506152828 58 317 0.9 4.3 0.00 0.00 0.00 81 1019.9
20260506152328 57 359 0.9 2.6 0.00 0.00 0.00 82 1019.8
20260506151828 57 316 0.9 2.6 0.00 0.00 0.00 82 1019.9
20260506151328 57 333 0.9 2.6 0.00 0.00 0.00 83 1019.9
20260506150828 57 326 0.9 1.7 0.00 0.00 0.00 82 1019.9
20260506150328 57 318 1.7 4.3 0.00 0.00 0.00 82 1019.9
20260506145828 57 320 0.0 0.9 0.00 0.00 0.00 82 1019.9
20260506145328 57 285 0.9 2.6 0.00 0.00 0.00 82 1019.9
20260506144828 57 309 0.9 1.7 0.00 0.00 0.00 82 1019.9
20260506144328 57 0 0.9 2.6 0.00 0.00 0.00 82 1019.9
20260506143828 57 311 0.0 1.7 0.00 0.00 0.00 83 1019.9
20260506143328 57 331 0.9 2.6 0.00 0.00 0.00 83 1019.9
20260506142828 57 314 0.9 2.6 0.00 0.00 0.00 83 1019.8
20260506142328 57 303 0.0 1.7 0.00 0.00 0.00 83 1019.8
20260506141828 57 314 0.0 2.6 0.00 0.00 0.00 83 1019.8
20260506141328 57 328 0.9 2.6 0.00 0.00 0.00 83 1019.8
20260506140828 57 307 0.9 2.6 0.00 0.00 0.00 83 1019.8
20260506135827 57 326 0.9 2.6 0.00 0.00 0.00 83 1019.6
20260506135328 57 325 0.0 1.7 0.00 0.00 0.00 83 1019.4
20260506133827 57 306 0.0 1.7 0.00 0.00 0.00 83 1019.2
20260506133328 57 326 0.0 2.6 0.00 0.00 0.00 83 1019.1
20260506132828 57 305 0.9 1.7 0.00 0.00 0.00 83 1019.0
20260506132328 57 322 0.9 1.7 0.00 0.00 0.00 83 1019.0
20260506131828 57 302 0.0 0.9 0.00 0.00 0.00 83 1018.9
20260506130828 57 302 0.0 0.9 0.00 0.00 0.00 83 1018.9
20260506130328 57 305 0.0 0.9 0.00 0.00 0.00 82 1018.9
20260506125828 57 305 0.0 1.7 0.00 0.00 0.00 82 1018.8
20260506125328 57 305 0.0 1.7 0.00 0.00 0.00 82 1018.8
20260506124828 57 305 0.0 2.6 0.00 0.00 0.00 82 1018.8
20260506124328 57 324 0.9 1.7 0.00 0.00 0.00 82 1018.8
20260506123328 57 311 0.9 1.7 0.00 0.00 0.00 82 1018.8
20260506122828 57 0 0.0 0.9 0.00 0.00 0.00 82 1018.8
20260506122328 57 0 0.0 0.9 0.00 0.00 0.00 82 1018.8
20260506121828 57 0 0.0 1.7 0.00 0.00 0.00 82 1018.7
20260506121328 57 0 0.9 1.7 0.00 0.00 0.00 82 1018.7
20260506120828 57 0 0.9 1.7 0.00 0.00 0.00 82 1018.7
20260506115827 57 0 0.0 0.9 0.00 0.00 0.00 82 1018.5
20260506115328 57 0 0.0 0.9 0.00 0.00 0.00 82 1018.5
20260506114328 57 0 0.0 0.0 0.00 0.00 0.00 82 1018.4
20260506113828 57 0 0.0 0.9 0.00 0.00 0.00 82 1018.4
20260506113328 57 0 0.0 0.0 0.00 0.00 0.00 82 1018.4
20260506112828 57 0 0.0 0.0 0.00 0.00 0.00 82 1018.4
20260506112328 57 0 0.0 0.0 0.00 0.00 0.00 82 1018.3
20260506111828 57 0 0.0 0.0 0.00 0.00 0.00 81 1018.3
20260506111328 57 0 0.0 0.0 0.00 0.00 0.00 81 1018.3
20260506110828 57 0 0.0 0.9 0.00 0.00 0.00 81 1018.3
20260506110327 57 0 0.0 0.9 0.00 0.00 0.00 81 1018.3
20260506105328 57 0 0.0 0.0 0.00 0.00 0.00 81 1018.2
20260506104328 57 0 0.0 0.0 0.00 0.00 0.00 82 1018.2
20260506103328 57 0 0.0 0.0 0.00 0.00 0.00 81 1018.2
20260506102828 57 0 0.0 0.0 0.00 0.00 0.00 81 1018.2
20260506102328 57 0 0.0 0.0 0.00 0.00 0.00 81 1018.2
20260506101328 57 0 0.0 0.0 0.00 0.00 0.00 81 1018.2
20260506100828 57 0 0.0 0.0 0.00 0.00 0.00 81 1018.2
20260506095327 58 0 0.0 0.0 0.00 0.00 0.00 80 1018.2
20260506094828 58 0 0.0 0.0 0.00 0.00 0.00 80 1018.2
20260506094328 58 0 0.0 0.0 0.00 0.00 0.00 80 1018.2
20260506093829 58 0 0.0 0.0 0.00 0.00 0.00 80 1018.2
20260506093328 58 0 0.0 0.0 0.00 0.00 0.00 80 1018.3
20260506092828 58 0 0.0 0.9 0.00 0.00 0.00 80 1018.3
20260506092328 58 0 0.0 0.0 0.00 0.00 0.00 79 1018.3
20260506091828 58 0 0.0 0.0 0.00 0.00 0.00 78 1018.3
20260506091328 58 0 0.0 0.9 0.00 0.00 0.00 78 1018.3
20260506090828 58 30 0.0 1.7 0.00 0.00 0.00 78 1018.3
20260506090328 58 316 0.0 0.9 0.00 0.00 0.00 78 1018.2
20260506085827 58 316 0.0 0.9 0.00 0.00 0.00 78 1018.2
20260506085328 58 316 0.0 0.9 0.00 0.00 0.00 78 1018.2
20260506084328 58 316 0.0 0.0 0.00 0.00 0.00 78 1018.2
20260506083828 58 316 0.0 0.0 0.00 0.00 0.00 78 1018.2
20260506082828 58 316 0.0 0.9 0.00 0.00 0.00 77 1018.2
20260506082328 58 337 0.0 1.7 0.00 0.00 0.00 77 1018.3
20260506081828 58 342 0.9 1.7 0.00 0.00 0.00 77 1018.3
20260506081328 58 342 0.9 2.6 0.00 0.00 0.00 77 1018.3
20260506080827 58 0 0.0 0.9 0.00 0.00 0.00 77 1018.3
20260506073328 58 352 0.9 1.7 0.00 0.00 0.00 77 1018.0
20260506072828 58 350 0.9 2.6 0.00 0.00 0.00 77 1017.9
20260506072328 58 5 0.9 1.7 0.00 0.00 0.00 76 1017.9
20260506071828 58 4 0.9 1.7 0.00 0.00 0.00 76 1017.9
20260506071328 58 31 0.0 1.7 0.00 0.00 0.00 76 1017.8
20260506070328 59 0 0.9 1.7 0.00 0.00 0.00 76 1017.7
20260506062328 59 332 0.9 1.7 0.00 0.00 0.00 75 1017.5
20260506061828 59 31 0.9 2.6 0.00 0.00 0.00 76 1017.4
20260506061327 59 264 0.0 1.7 0.00 0.00 0.00 76 1017.3
20260506060828 59 263 0.0 0.9 0.00 0.00 0.00 76 1017.3
20260506060327 59 263 0.0 0.0 0.00 0.00 0.00 75 1017.2
20260506051327 59 263 0.0 0.9 0.00 0.00 0.00 74 1017.0
20260506050827 59 263 0.0 0.9 0.00 0.00 0.00 74 1017.0
20260506050328 59 263 0.0 0.9 0.00 0.00 0.00 74 1017.0
20260506044828 59 263 0.0 0.0 0.00 0.00 0.00 73 1016.8
20260506044328 59 263 0.0 0.0 0.00 0.00 0.00 73 1016.8
20260506043328 59 265 0.0 1.7 0.00 0.00 0.00 73 1016.7
20260506042828 59 298 0.0 1.7 0.00 0.00 0.00 73 1016.7
20260506042328 59 330 0.0 0.9 0.00 0.00 0.00 73 1016.6
20260506041828 60 330 0.0 1.7 0.00 0.00 0.00 73 1016.6
20260506041328 60 333 0.0 0.0 0.00 0.00 0.00 73 1016.5
20260506040828 60 333 0.0 0.9 0.00 0.00 0.00 73 1016.3
20260506040328 60 333 0.0 0.0 0.00 0.00 0.00 72 1016.3
20260506035828 60 333 0.0 0.9 0.00 0.00 0.00 72 1016.3
20260506035328 60 333 0.0 0.9 0.00 0.00 0.00 72 1016.3
20260506034828 60 324 0.0 1.7 0.00 0.00 0.00 72 1016.2
20260506034328 60 306 0.0 1.7 0.00 0.00 0.00 72 1016.1
20260506033828 60 247 0.0 1.7 0.00 0.00 0.00 72 1016.1
20260506033328 60 304 0.0 0.9 0.00 0.00 0.00 71 1015.9
20260506032827 60 304 0.0 0.9 0.00 0.00 0.00 72 1015.9
20260506032328 60 272 0.0 1.7 0.00 0.00 0.00 71 1015.8
20260506031827 60 296 0.0 0.9 0.00 0.00 0.00 71 1015.7
20260506031328 60 288 0.0 0.9 0.00 0.00 0.00 72 1015.7
20260506030828 60 274 0.9 2.6 0.00 0.00 0.00 71 1015.6
20260506030328 60 302 0.0 1.7 0.00 0.00 0.00 71 1015.6
20260506025827 60 289 0.9 2.6 0.00 0.00 0.00 71 1015.6
20260506025327 61 251 0.0 1.7 0.00 0.00 0.00 72 1015.4
20260506024828 61 274 0.9 1.7 0.00 0.00 0.00 71 1015.4
20260506024327 61 286 0.9 2.6 0.00 0.00 0.00 72 1015.3
20260506023827 61 254 0.9 1.7 0.00 0.00 0.00 72 1015.2